Regional Weather Roundup
Issued by NWS

Home | Current Version | Previous Version | Graphics & Text | Print | Product List | Glossary On
Versions: 1 2 3 4 5 6 7 8 9 10 11 12 13 14 15 16 17 18 19 20 21 22 23 24 25 26 27 28 29 30 31 32 33 34 35 36 37 38 39 40 41 42 43 44 45 46 47 48
000
ASUS43 KDMX 040207
RWRIA

WEATHER ROUNDUP FOR IOWA
NATIONAL WEATHER SERVICE DES MOINES IA
900 PM CDT FRI JUL 03 2015

NOTE: "FAIR" INDICATES FEW OR NO CLOUDS BELOW 12,000 FEET WITH NO
SIGNIFICANT WEATHER AND/OR OBSTRUCTIONS TO VISIBILITY.

* - THESE STATIONS ARE NOT NWS STATIONS...THUS NOT UNDER NWS
QUALITY CONTROL.  THEY ALSO DO NOT REPORT WEATHER SUCH
AS PRECIPITATION OR FOG.

IAZ001>003-012>014-020>022-031>034-043>046-040300-
   NORTHWEST IOWA

CITY           SKY/WX    TMP DP  RH WIND       PRES   REMARKS
CARROLL *      CLEAR     68  61  77 CALM      29.96S
CHEROKEE *     CLEAR     67  62  84 CALM      29.96S
DENISON *      CLEAR     68  63  83 CALM      29.95S
LE MARS *      CLEAR     70  63  78 CALM      29.96S
ORANGE CITY *  CLEAR     70  61  73 CALM      29.96S
SHELDON *      PTCLDY    68  64  88 S5        29.94F
SIOUX CITY     CLEAR     72  63  73 S3        29.95S
SPENCER        PTCLDY    68  60  75 SW7       29.95F
STORM LAKE *   CLEAR     70  57  64 W5        29.98R
$$

IAZ055>058-069>071-079>083-090>094-040300-
   SOUTHWEST IOWA

CITY           SKY/WX    TMP DP  RH WIND       PRES   REMARKS
ATLANTIC *     CLEAR     68  59  73 CALM      29.96S
AUDUBON *      CLEAR     66  61  82 CALM      29.98R
CLARINDA *     CLEAR     68  64  88 CALM      29.97S
COUNCIL BLFS * CLEAR     72  55  56 CALM      29.97S
CRESTON *      CLEAR     70  57  64 NE7       29.96S HAZE
HARLAN  *      CLEAR     68  64  88 CALM      30.00S
LAMONI         CLEAR     71  58  63 N3        29.96R
RED OAK *      CLEAR     68  59  73 N6        29.96S
SHENANDOAH *   CLEAR     68  61  77 N3        29.96S
$$

IAZ047>049-059>061-072>074-084-040300-
   CENTRAL IOWA

CITY           SKY/WX    TMP DP  RH WIND       PRES   REMARKS
AMES           CLEAR     66  61  84 SW3       29.94S HAZE
ANKENY *       CLEAR     66  63  88 CALM      29.94S
CHARITON *     CLEAR     70  59  68 CALM      29.95S
DES MOINES     CLEAR     73  58  59 S5        29.94S
GRINNELL*      CLEAR     70  57  64 CALM      29.95S
KNOXVILLE *    CLEAR     70  55  60 CALM      29.93F
MARSHALLTOWN   CLEAR     71  59  65 CALM      29.93F
PELLA *        CLEAR     67  63  86 CALM      29.95S
PERRY *          N/A     72  61  68 CALM      29.96R
$$

IAZ004>006-015-016-023>025-035-036-040300-
   NORTH CENTRAL IOWA

CITY           SKY/WX    TMP DP  RH WIND       PRES   REMARKS
ALGONA *       CLEAR     68  61  77 S3        29.95S
CLARION *      CLEAR     68  57  68 CALM      29.95S
ESTHERVILLE    CLEAR     67  60  78 SW6       29.94F
FORT DODGE *   CLEAR     64  55  72 CALM      29.96S
MASON CITY     CLEAR     68  57  68 CALM      29.96S
FOREST CITY *    N/A     64  57  77 CALM      29.95S
IOWA FALLS *     N/A     68  61  77 CALM      29.95F
$$

IAZ007>011-017>019-026>030-037>042-050>054-066-040300-
   NORTHEAST IOWA

CITY           SKY/WX    TMP DP  RH WIND       PRES   REMARKS
CEDAR RAPIDS   CLEAR     69  60  73 NW3       29.93S
CHARLES CITY * CLEAR     68  64  88 CALM      29.95R
CLINTON *      CLEAR     66  61  82 N5        29.95F
DECORAH *        N/A    N/A N/A N/A MISG        N/A
DUBUQUE        CLEAR     63  55  75 NW5       29.94F
MONTICELLO *   CLEAR     64  64 100 CALM      29.93F
OELWEIN *      CLEAR     68  63  83 W3        29.95S
WATERLOO       CLEAR     68  61  78 CALM      29.93S
$$

IAZ064-065-067-068-078-040300-
   EAST CENTRAL IOWA

CITY           SKY/WX    TMP DP  RH WIND       PRES   REMARKS
DAVENPORT      CLEAR     67  63  87 N5        29.93S
IOWA CITY      CLEAR     68  57  68 CALM      29.94S
MT. PLEASANT * CLEAR     70  59  68 CALM      29.94R
MUSCATINE *    CLEAR     70  63  78 CALM      29.93S
QUAD CITIES    CLEAR     66  61  84 CALM      29.92S
$$

IAZ062-063-075>077-085>089-095>099-040300-
   SOUTHEAST IOWA

CITY           SKY/WX    TMP DP  RH WIND       PRES   REMARKS
BURLINGTON     CLEAR     69  62  78 N5        29.93R
FAIRFIELD *    CLEAR     66  61  82 N5        29.94S
FORT MADISON * CLEAR     70  63  78 CALM      29.94S
KEOKUK *       CLEAR     68  64  88 CALM      29.92S
OSKALOOSA *      N/A     65  60  85 CALM      29.94S
CENTERVILLE *    N/A     68  64  88 CALM      29.96S
OTTUMWA        CLEAR     68  62  81 N3        29.93S
WASHINGTON *   CLEAR     68  61  77 N3        29.95S
$$

ABBREVIATIONS USED IN REMARKS
   TC - TEMPERATURES IN CELSIUS
  WCI - WIND CHILL INDEX
   HX - HEAT INDEX
  VSB - VISIBILITY
$$




USA.gov is the U.S. government's official web portal to all federal, state and local government web resources and services.